Regional Weather Roundup
Issued by NWS Midland/Odessa, TX

Home | Current Version | Previous Version | Text Only | Print | Product List | Glossary On
Versions: 1 2 3 4 5 6 7 8 9 10 11 12 13 14 15 16 17 18 19 20 21 22 23 24 25 26 27 28 29 30 31 32 33 34 35 36 37 38 39 40 41 42 43 44 45 46 47 48 49 50
000
ASUS44 KMAF 270410
RWRMAF
MIDLAND AREA WEATHER ROUNDUP
NATIONAL WEATHER SERVICE MIDLAND TX
1000 PM CST MON JAN 26 2015

...IN SOUTHWEST TEXAS AND SOUTHEAST NEW MEXICO...

CITY           SKY/WX    TMP DP  RH WIND       PRES   REMARKS
ALPINE         CLOUDY    47  34  61 CALM      30.37F
ANDREWS        FAIR      50  31  48 W10       30.25S
ARTESIA        PTCLDY    43  37  81 W10       30.28S WCI  37
BIG SPRING     MOCLDY    45  34  65 SE6       30.25S
CARLSBAD       PTCLDY    44  34  67 NW7       30.25F
DRYDEN           N/A     52  39  61 W7        30.24F
FORT STOCKTON  CLOUDY    51  38  60 S10       30.27S
GUAD PASS      NOT AVBL
HOBBS          CLOUDY    46  32  57 W10       30.26F
MARFA          CLOUDY    41  34  75 NW3       30.34R
MIDLAND AIRPK  MOCLDY    51  35  53 W8        30.25S
MIDLAND INTL   MOCLDY    46  36  68 W8        30.24F
ODESSA         MOCLDY    47  33  58 W5        30.25F
PECOS          CLOUDY    46  37  73 SW6       30.26S
PRESIDIO       CLOUDY    51  43  73 CALM      30.30R
SEMINOLE       MOCLDY    48  32  55 W8        30.26S
SNYDER         MOCLDY   N/A N/A N/A SW8       30.21S
WINK           MOCLDY    46  32  58 W7        30.25S
$$
...OTHER STATIONS IN TEXAS...

CITY           SKY/WX    TMP DP  RH WIND       PRES   REMARKS
ABILENE        PTCLDY    54  35  48 SW7       30.17S
AMARILLO       PTCLDY    47  34  60 W8        30.24R
AUSTIN         MOCLDY    55  43  63 W5        30.17S
BROWNSVILLE    CLOUDY    58  51  78 S3        30.25S
CORPUS CHRISTI CLOUDY    53  43  68 S5        30.22S
DALLAS FTW     PTCLDY    59  37  44 SW9       30.07R
DEL RIO        CLOUDY    52  39  61 CALM      30.23S
EL PASO        CLOUDY    52  31  44 N9        30.28S
HOUSTON INT    MOCLDY    58  41  53 SW5       30.16S
LUBBOCK        PTCLDY    48  34  58 NW3       30.22S
SAN ANGELO     PTCLDY    50  37  61 W3        30.22R
SAN ANTONIO    MOCLDY    58  39  49 W6        30.20S
WACO           PTCLDY    47  39  74 SW7       30.12S
WICHITA FALLS  NOT AVBL
$$
...OTHER LOCATIONS IN NEW MEXICO...

CITY           SKY/WX    TMP DP  RH WIND       PRES   REMARKS
ALAMAGORDO     MOCLDY    41  27  56 NE8       30.31S WCI  36
ALBUQUERQUE    PTCLDY    46  28  49 CALM      30.34R
CANNON AFB     PTCLDY    46  34  63 NW12      30.27F
CLOVIS         CLEAR     45  30  57 NW9       30.27S WCI  40
HOLLOMAN AFB   MOCLDY    40  31  69 NE8       30.29S WCI  35
ROSWELL        PTCLDY    42  35  76 W6        30.26F WCI  38
RUIDOSO        PTCLDY    41  19  42 W5        30.38F WCI  38
SANTA FE       PTCLDY    37  25  61 N7        30.37S WCI  32
TRUTH OR CONSE CLOUDY    46  28  49 NW8       30.31S
TUCUMCARI      PTCLDY    46  33  60 W10       30.26F
$$



USA.gov is the U.S. government's official web portal to all federal, state and local government web resources and services.